Regional Weather Roundup
Issued by NWS Kansas City/Pleasant Hill, MO

Home | Current Version | Previous Version | Graphics & Text | Print | Product List | Glossary Off
Versions: 1 2 3 4 5 6 7 8 9 10 11 12 13 14 15 16 17 18 19 20 21 22 23 24 25 26 27 28 29 30 31 32 33 34 35 36 37 38 39 40 41 42 43 44 45 46 47 48 49 50

680
ASUS43 KEAX 180010
RWREAX

WEATHER ROUNDUP FOR EASTERN KANSAS AND NORTHWEST MISSOURI
NATIONAL WEATHER SERVICE KANSAS CITY/PLEASANT HILL MO
600 PM CST SAT FEB 17 2018

KSZ040-057-103>105-MOZ028-029-037-043-180100-
...KANSAS CITY METROPOLITAN AREA...

CITY           SKY/WX    TMP DP  RH WIND       PRES   REMARKS
K.C. INTL      CLEAR     48  20  32 NW3       30.13R
6HR MIN TEMP:  48; 6HR MAX TEMP:  53;

K.C. DOWNTOWN  CLEAR     50  20  30 VRB3      30.13R
6HR MIN TEMP:  47; 6HR MAX TEMP:  55;

LEES SUMMIT    CLEAR     49  19  30 NW5       30.13R
6HR MIN TEMP:  44; 6HR MAX TEMP:  54;

OLATHE - IXD   CLEAR     46  19  34 NW5       30.15R
6HR MIN TEMP:  46; 6HR MAX TEMP:  55;

OLATHE - OJC   CLEAR     49  19  30 NW5       30.14R
6HR MIN TEMP:  45; 6HR MAX TEMP:  53;

LAWRENCE       CLEAR     48  21  34 W3        30.13R

$$

MOZ001>008-011>017-020>025-030>033-038>040-044>046-053-054-180100-
...NORTHERN AND CENTRAL MISSOURI...

CITY           SKY/WX    TMP DP  RH WIND       PRES   REMARKS
ST. JOSEPH     CLEAR     43  22  43 N7        30.13R
6HR MIN TEMP:  43; 6HR MAX TEMP:  52;

MOSBY            N/A     48  19  32 CALM      30.13R
WARRENSBURG    CLEAR     50  19  29 NW6       30.12R
WHITEMAN AFB   CLEAR     46  18  33 N8        30.09R
6HR MIN TEMP:  43; 6HR MAX TEMP:  54;

CLINTON        CLEAR     46  21  36 NW6       30.14R
SEDALIA        CLEAR     46  23  40 NW5       30.14R
6HR MIN TEMP:  42; 6HR MAX TEMP:  53;

WARSAW         NOT AVBL
CHILLICOTHE      N/A     45  20  36 NW3       30.13R
6HR MIN TEMP:  44; 6HR MAX TEMP:  52;

KIRKSVILLE     CLEAR     41  24  51 NW5       30.11R
6HR MIN TEMP:  35; 6HR MAX TEMP:  48;


$$

MOZ041-047>049-056>058-063>065-088>090-097-180100-
...EASTERN AND SOUTHERN MISSOURI...

CITY           SKY/WX    TMP DP  RH WIND       PRES   REMARKS
ST. LOUIS INTL PTCLDY    40  36  86 NW5       30.12R
6HR MIN TEMP:  36; 6HR MAX TEMP:  43; 6HR PCP:  0.01;

SPIRIT OF STL  CLEAR     39  36  89 W5        30.12R
COLUMBIA       CLEAR     46  25  43 NW10      30.12R
JEFFERSON CITY CLEAR     48  31  51 NW5       30.13R
ROLLA          CLEAR     42  34  73 W6        30.13R
OSAGE BEACH    CLEAR     47  35  63 CALM      30.14R
SPRINGFIELD    CLEAR     47  36  65 CALM      30.14R
BRANSON        PTCLDY    45  37  76 CALM      30.17R
JOPLIN         CLEAR     50  37  61 CALM      30.16R
WEST PLAINS    PTCLDY    42  36  79 NW5       30.15R

$$

IAZ060-094-KSZ022-034>040-054-083-096-NEZ052-066-093-180100-
...KANSAS...SOUTHEAST NEBRASKA AND IOWA...

CITY           SKY/WX    TMP DP  RH WIND       PRES   REMARKS
TOPEKA         CLEAR     51  17  26 W5        30.13R
6HR MIN TEMP:  50; 6HR MAX TEMP:  57;

MANHATTAN      CLEAR     51  15  23 CALM      30.12R
EMPORIA        CLEAR     50  14  23 NW7       30.14R
CHANUTE        CLEAR     52  16  24 N6        30.15R
WICHITA        CLEAR     54  10  17 NE7       30.13R
OMAHA          PTCLDY    37  27  67 N9        30.12R WCI  30
LINCOLN        CLEAR     42  24  49 N5        30.12S
FALLS CITY     CLEAR     45  19  35 NW6       30.12R
LAMONI         CLEAR     38  22  52 NW8       30.10R WCI  32
DES MOINES     PTCLDY    36  27  69 NW13      30.09R WCI  27

$$





USA.gov is the U.S. government's official web portal to all federal, state and local government web resources and services.